SIRIUS-1 1 26390U 00035A 10065.42707428 .00000038 00000-0 10000-3 0 6536 2 26390 61.2887 252.9659 2691967 269.4797 59.8816 1.00274921 35478 SIRIUS-2 1 26483U 00051A 10067.09225766 -.00000013 00000-0 10000-3 0 3173 2 26483 63.7706 133.0077 2648939 270.0513 60.0114 1.00283222 34823 SIRIUS-3 1 26626U 00077A 10065.76453468 -.00000161 00000-0 10000-3 0 5620 2 26626 64.2645 12.7365 2669314 270.5611 59.3064 1.00277625 33944 XM-2 (ROCK) 1 26724U 01012A 10063.50000000 -.00000220 00000-0 00000+0 0 7318 2 26724 0.0760 253.0770 0000570 1.3430 2.5130 1.00272957 32901 XM-1 (ROLL) 1 26761U 01018A 10064.00000000 -.00000220 00000-0 00000+0 0 5218 2 26761 0.0870 256.6380 0000422 359.4880 181.3700 1.00271594 32389 XM-3 (RHYTHM) 1 28626U 05008A 10064.00000000 -.00000220 00000-0 00000+0 0 6977 2 28626 0.0270 140.4830 0000158 212.3180 84.7420 1.00272399 18429 XM-4 (BLUES) 1 29520U 06049A 10067.26211252 -.00000040 00000-0 10000-3 0 4772 2 29520 0.0277 119.2889 0000400 213.9710 171.9270 1.00273425 12397